Zurück zum Katalog

CZ-6A DEB

AktivPO
NORAD 60983·DEBRIS·🇨🇳 China

Gestartet Aug 6, 2024 von Taiyuan Satellite Launch Center

Loading…

Nächste Überflüge (nächste 24 Stunden)

TLE

AktuellSource: Space-Track

Epoche: Sep 14, 2026, 05:24 UTC

1 60983U 24140MJ  26257.22527273  .00000809  00000-0  23394-3 0  9990
2 60983  88.7829 241.2511 0054668  20.0141 340.3188 14.42758808108578

Verfolge CZ-6A DEB in Echtzeit mit AllMySat

Download on the App Store